Location: ??????
(30.5519°N, 47.7720°E)
Time: 17:20:12
(UTC+00:00)

Meteor 2-15 - Pass Details

Date: 24 January 2021
Orbit: 936 x 955 km, 82.5° (Epoch: 01 March)

Event Time Altitude Azimuth Distance (km) Brightness Sun altitude
Rises 15:57:21 0° 355° (N) 3,636 7.4 -21.3°
Reaches altitude 10° 15:59:51 10° 357° (N) 2,687 6.7 -21.9°
Maximum altitude 16:06:01 80° 84° (E) 971 4.3 -23.2°
Drops below altitude 10° 16:12:08 10° 171° (S) 2,666 6.8 -24.5°
Sets 16:14:36 0° 172° (S) 3,605 7.5 -25.0°
